Location: Alfortville
(48.8058°N, 2.4204°E)
Time: 02:06:41
(UTC+00:00)

Envisat - Pass Details

Date: 01 December 2022
Orbit: 763 x 765 km, 98.2° (Epoch: 28 January)

Event Time Altitude Azimuth Distance (km) Brightness Sun altitude
Rises 16:53:54 0° 226° (SW) 3,223 7.7 -9.2°
Reaches altitude 10° 16:59:01 10° 271° (W) 2,307 6.7 -10.0°
Maximum altitude 16:59:27 10° 276° (W) 2,300 6.6 -10.0°
Drops below altitude 10° 16:59:53 10° 281° (W) 2,308 6.4 -10.1°
Sets 17:05:03 0° 326° (NW) 3,244 6.4 -10.9°
